Weather History for Valparaiso, FL

Change the Weather History Date:

Saturday, August 3, 2013

  Actual Average Record
Temperature  
Mean Temperature 84 °F -  
Max Temperature 90 °F 89 °F 98 °F (1961)
Min Temperature 78 °F 70 °F 64 °F (1967)
Cooling Degree Days 18    
Growing Degree Days 34 (Base 50)    
Moisture  
Dew Point 77 °F    
Average Humidity 78    
Maximum Humidity 95    
Minimum Humidity 65    
Precipitation  
Precipitation 0.00 in - - ()
Sea Level Pressure  
Sea Level Pressure 30.04 in    
Wind  
Wind Speed 3 mph (WSW)    
Max Wind Speed 10 mph    
Max Gust Speed 18 mph    
Visibility 10 miles    
Events Rain , Thunderstorm    
Averages and records for this station are not official NWS values.
T = Trace of Precipitation, MM = Missing Value Source: NWS Daily Summary

Daily Weather History Graph

Daily Weather History Graph

Search for Another Location

Airport:

Trip Planner

Search our weather history database for the weather conditions in past years. The results will help you decide how hot, cold, wet, or windy it might be!

Date:

Astronomy

Aug. 03, 2013 Rise Set
Actual Time 6:05 AM CDT 7:38 PM CDT
Civil Twilight 5:39 AM CDT 8:04 PM CDT
Nautical Twilight 5:08 AM CDT 8:35 PM CDT
Astronomical Twilight 4:35 AM CDT 9:07 PM CDT
Moon 3:17 AM CDT (8/3) 5:18 PM CDT (8/3)
Length of Visible Light 14h 24m
Length of Day
13h 32m
Waning Crescent, 9% of the Moon is Illuminated
Aug 3
Waning Crescent
Aug 6
New
Aug 14
First Quarter
Aug 20
Full
Aug 28
Last Quarter

Hourly Weather History & Observations

Time (CDT) Temp. Heat Index Dew Point Humidity Pressure Visibility Wind Dir Wind Speed Gust Speed Precip Events Conditions
12:55 AM 82.0 °F 89.9 °F 76.8 °F 84% 30.04 in 10.0 mi Calm Calm - N/A   Mostly Cloudy
1:55 AM 82.8 °F 91.9 °F 77.5 °F 84% 30.01 in 10.0 mi WSW 3.5 mph - N/A   Mostly Cloudy
2:14 AM 82.4 °F 90.9 °F 77.0 °F 84% 30.00 in 10.0 mi West 3.5 mph - N/A   Scattered Clouds
2:55 AM 81.7 °F 90.0 °F 77.9 °F 88% 30.01 in 10.0 mi Calm Calm - N/A   Scattered Clouds
3:55 AM 80.6 °F 87.7 °F 78.1 °F 92% 30.01 in 10.0 mi Calm Calm - N/A   Scattered Clouds
4:56 AM 78.3 °F - 76.6 °F 95% 30.01 in 8.0 mi Calm Calm - N/A   Scattered Clouds
5:55 AM 78.1 °F - 76.3 °F 94% 30.03 in 10.0 mi NW 1.2 mph - N/A   Scattered Clouds
6:55 AM 79.2 °F - 77.2 °F 94% 30.04 in 10.0 mi Calm Calm - N/A   Partly Cloudy
7:55 AM 83.7 °F 94.5 °F 78.3 °F 84% 30.06 in 10.0 mi Calm Calm - N/A   Partly Cloudy
8:59 AM 84.6 °F 95.5 °F 77.7 °F 80% 30.05 in 10.0 mi WNW 3.5 mph - N/A   Mostly Cloudy
9:58 AM 87.1 °F 98.3 °F 76.8 °F 71% 30.06 in 10.0 mi West 3.5 mph - N/A   Mostly Cloudy
10:48 AM 87.8 °F 99.7 °F 77.0 °F 70% 30.07 in 10.0 mi SSW 8.1 mph - N/A   Mostly Cloudy
10:56 AM 87.8 °F 99.1 °F 76.6 °F 69% 30.07 in 10.0 mi SSW 8.1 mph - N/A   Mostly Cloudy
11:56 AM 87.3 °F 96.3 °F 74.8 °F 66% 30.08 in 10.0 mi SSW 9.2 mph 18.4 mph N/A   Mostly Cloudy
12:56 PM 85.3 °F 94.2 °F 75.2 °F 72% 30.07 in 10.0 mi SSW 10.4 mph - N/A Thunderstorm Thunderstorm
1:57 PM 84.7 °F 93.2 °F 75.4 °F 73% 30.06 in 10.0 mi SSW 6.9 mph - 0.00 in Rain Light Rain Showers
2:57 PM 86.5 °F 98.3 °F 77.5 °F 74% 30.04 in 10.0 mi WSW 9.2 mph - 0.00 in   Mostly Cloudy
3:55 PM 88.9 °F 99.7 °F 75.9 °F 65% 30.02 in 10.0 mi SW 9.2 mph - N/A   Mostly Cloudy
4:55 PM 89.4 °F 101.1 °F 76.3 °F 65% 30.02 in 10.0 mi SW 10.4 mph - N/A   Mostly Cloudy
5:55 PM 89.2 °F 100.7 °F 76.3 °F 65% 30.01 in 10.0 mi SW 9.2 mph - N/A   Mostly Cloudy
6:37 PM 87.8 °F 99.7 °F 77.0 °F 70% 30.01 in 10.0 mi SW 6.9 mph - N/A Thunderstorm Thunderstorm
6:55 PM 86.5 °F 96.9 °F 76.3 °F 71% 30.04 in 10.0 mi SW 8.1 mph - N/A Thunderstorm Thunderstorm
7:33 PM 86.0 °F 96.9 °F 77.0 °F 74% 30.04 in 10.0 mi WNW 2.3 mph - N/A   Mostly Cloudy
7:55 PM 84.0 °F 91.2 °F 74.3 °F 72% 30.06 in 10.0 mi NE 4.6 mph - N/A   Mostly Cloudy
8:55 PM 82.8 °F 90.1 °F 75.2 °F 78% 30.06 in 10.0 mi Calm Calm - N/A   Mostly Cloudy
9:55 PM 83.5 °F 94.0 °F 78.3 °F 84% 30.08 in 10.0 mi WSW 3.5 mph - N/A   Scattered Clouds
10:55 PM 83.1 °F 93.6 °F 78.6 °F 86% 30.08 in 10.0 mi SW 3.5 mph - N/A   Scattered Clouds
11:55 PM 82.9 °F 93.1 °F 78.4 °F 86% 30.06 in 10.0 mi WSW 3.5 mph - N/A   Partly Cloudy